Find Starlink 37349

NORAD ID: 68734 Int'l Des: 2026-082 Owner: SPXS Country: US Constellation: starlink operational
LEOCIRCULARRETROGRADE

Current View

Loading 3D Globe...

About Starlink 37349

Description loading...

Upcoming Passes

Passes for default location (London). Set your location on the main map for personalized predictions.

Altitude History

Loading altitude history...

Two-Line Element Set

1 68734U 26082G 26150.60054661 .00065283 00000-0 11912-2 0 9998
2 68734 97.2816 14.3598 0001153 3.6709 356.4550 15.49210068 7009
Epoch: May 30, 2026 • Age: 13 hours

Current Status

Altitude 432.2 km
Velocity 7.66 km/s
Sub-Earth Point 80.99°N, 25.37°E
Launch Date Apr 15, 2026
Age 0.1 years
Type internet

Technical Details

Classification Payload
Mass 575.00 kg
Dry Mass 530.00 kg
Total Mass 575.00 kg
Length 0.30 m
Diameter 4.10 m
Span 29.00 m
Shape Box + pan
Manufacturer SPXS
Bus Type Starlink V2MO
Phase Status In Orbit
Owner/State SPXS/US

Most Searched